Regional Weather Roundup
Issued by NWS Green Bay, WI

Home | Current Version | Previous Version | Graphics & Text | Print | Product List | Glossary Off
Versions: 1 2 3 4 5 6 7 8 9 10 11 12 13 14 15 16 17 18 19 20 21 22 23 24 25 26 27 28 29 30 31 32 33 34 35 36 37 38 39 40 41 42 43 44 45 46 47 48 49 50

000
ASUS43 KGRB 010900
RWRGRB

NORTH-CENTRAL AND NORTHEAST WISCONSIN REGIONAL WEATHER ROUNDUP
NATIONAL WEATHER SERVICE GREEN BAY WI
400 AM CDT TUE SEP 01 2015

WIZ005-009-010>012-018-019-011000-
NORTH CENTRAL WISCONSIN

CITY           SKY/WX    TMP DP  RH WIND       PRES   REMARKS
IRONWOOD       PTCLDY    73  70  88 SW8       29.90S
MANITOWISH WTR NOT AVBL
ARBOR VITAE    NOT AVBL
EAGLE RIVER    NOT AVBL
LAND O LAKES   NOT AVBL
RHINELANDER    PTCLDY    69  67  93 SW6       30.00S FOG
PHILLIPS       MOCLDY    67  67 100 CALM      29.96F FOG
ANTIGO         NOT AVBL
TOMAHAWK       NOT AVBL
MERRILL        NOT AVBL
$$

WIZ013-073-011000-
NORTHEAST WISCONSIN

CITY           SKY/WX    TMP DP  RH WIND       PRES   REMARKS
IRON MOUNTAIN  CLEAR     64  63  96 SE5       29.98R FOG
MARINETTE      CLEAR     66  63  88 SW5       29.98S
$$

WIZ017-030-035>037-045-011000-
CENTRAL WISCONSIN

CITY           SKY/WX    TMP DP  RH WIND       PRES   REMARKS
MEDFORD        NOT AVBL
WAUSAU         PTCLDY    67  66  97 S5        29.98S FOG
MOSINEE        NOT AVBL
MARSHFIELD     FOG       66  63  90 SE3       29.98S VSB 1/4
WISC RAPIDS    MOCLDY    68  65  90 CALM      29.99S
STEVENS POINT  NOT AVBL
WAUPACA        NOT AVBL
SHAWANO        NOT AVBL
CLINTONVILLE   FOG       63  63 100 CALM      29.99S VSB 1/4
WAUTOMA        NOT AVBL
$$

WIZ038-039-048-051-011000-
FOX VALLEY

CITY           SKY/WX    TMP DP  RH WIND       PRES   REMARKS
NWS GREEN BAY  CLEAR     65  64  97 S3        30.00S FOG
APPLETON       NOT AVBL
OSHKOSH        CLEAR     67  65  93 S8        29.99F FOG
FOND DU LAC    CLEAR     67  65  93 S6        30.01S FOG
$$

WIZ022-050-052-011000-
EAST CENTRAL WISCONSIN

CITY           SKY/WX    TMP DP  RH WIND       PRES   REMARKS
EPHRAIM        FAIR      65  64  97 CALM      29.99S FOG
STURGEON BAY   CLEAR     66  63  88 SW5       30.02S
MANITOWOC      NOT AVBL
SHEBOYGAN      FOG       60  59  96 CALM      30.02S VSB 1
$$

LMZ563-521-522-541>543-011000-
LAKESHORE

STATION/POSITION TIME  TEMP    WIND        PRES    VSBY  WAVE
                       AIR SEA DIR/SP/G                  HT/PER
                 (UTC) (F)     (DEG/KT/KT) (MB)    (MI)  (FT/S)
SHEBOYGAN LKSHOR 0800   64     190/  6/  6 1016.5F
KEWAUNEE LKSHORE 0800   50     150/  4/  5 1015.2
NORTHPORT PIER   0800   65     170/  4/  7 1015.6S
N MID LAKE BUOY  0750   65 65  210/ 16/ 17 1015.1S         3/ 4
S GREEN BAY BUOY 0800   67 64  190/  8/ 10 1017.0S
CHAMBERS ISLAND  0800   67     170/  4/  8 1015.6S
MENOMINEE LKSHOR 0800   67     190/  5/  7 1014.3
$$


USA.gov is the U.S. government's official web portal to all federal, state and local government web resources and services.